Regional Weather Roundup
Issued by NWS

Home | Current Version | Previous Version | Graphics & Text | Print | Product List | Glossary On
Versions: 1 2 3 4 5 6 7 8 9 10 11 12 13 14 15 16 17 18 19 20 21 22 23 24 25 26 27 28 29 30 31 32 33 34 35 36 37 38 39 40 41 42 43 44 45 46 47 48 49 50
000
ASUS43 KFSD 311902
RWRSD

WEATHER ROUNDUP FOR SOUTH DAKOTA
NATIONAL WEATHER SERVICE SIOUX FALLS SD
200 PM CDT TUE MAY 31 2016

NOTE: "FAIR" INDICATES FEW OR NO CLOUDS BELOW 12,000 FEET WITH NO
SIGNIFICANT WEATHER AND/OR OBSTRUCTIONS TO VISIBILITY.


SDZ001>005-009-010-012>017-312000-
NORTHWEST AND NORTH CENTRAL SOUTH DAKOTA

CITY           SKY/WX    TMP DP  RH WIND       PRES   REMARKS
BUFFALO          N/A     54  48  80 W38G46    29.83R
FAITH            N/A     55  46  71 W37G48    29.85F
MOBRIDGE       CLOUDY    60  44  55 SW23G31   29.77S
$$

SDZ012>016-024>037-041>051-057-063-072>074-312000-
SOUTHWEST AND SOUTH CENTRAL SOUTH DAKOTA

CITY           SKY/WX    TMP DP  RH WIND       PRES   REMARKS
RAPID CTY ARPT CLOUDY    63  38  39 W20G30    29.96S
PIERRE         MOSUNNY   68  42  38 W28G38    29.87F
CUSTER         CLOUDY    52  33  48 W20G38    30.04S
PHILIP         CLOUDY    66  41  40 NW29G38   29.91S
PINE RIDGE     SUNNY     69  32  25 W26G36    30.00F
WINNER         FAIR      73  39  29 W21G30    29.90F
$$

SDZ004>011-016>023-039-040-312000-
NORTHEAST SOUTH DAKOTA

CITY           SKY/WX    TMP DP  RH WIND       PRES   REMARKS
ABERDEEN       PTSUNNY   65  46  50 W18G30    29.80F
WATERTOWN      MOSUNNY   67  45  45 W18G28    29.87S
BROOKINGS      SUNNY     66  46  48 W20G25    29.88F
SISSETON         N/A     69  45  41 W17G30    29.81S
$$

SDZ017-020-022-023-036>040-048>070-312000-
SOUTHEAST SOUTH DAKOTA

CITY           SKY/WX    TMP DP  RH WIND       PRES   REMARKS
SIOUX FALLS    PTSUNNY   68  46  45 W12G23    29.91F
HURON          SUNNY     71  45  39 W21G29    29.86F
MITCHELL       SUNNY     70  47  43 W16G24    29.90F
YANKTON        MOSUNNY   70  46  43 W12       29.93F
$$

ABBREVIATIONS USED IN REMARKS
   TC - TEMPERATURE IN CELSIUS
  WCI - WIND CHILL INDEX
   HX - HEAT INDEX
  VSB - VISIBILITY




USA.gov is the U.S. government's official web portal to all federal, state and local government web resources and services.